• In Latvia
  • List of Countries
  • For 7 days
  • Water Temperature
  • Satellite Maps
  • Weather Map
  • Weather Widgets
  • user-avatar
    Login

    Hourly Weather Kamennomostskiy

    Today, 27 April, Friday

    Time Temperature Precipitation Wind Pressure Humidity
    00:00 +15°C° 0 mm 1 mps 724 mmHg 81%
    01:00 +15°C° 0 mm 1 mps 724 mmHg 81%
    02:00 +15°C° 0 mm 1 mps 723 mmHg 81%
    03:00 +14°C° 0 mm 1 mps 723 mmHg 80%
    04:00 +14°C° 0 mm 1 mps 723 mmHg 79%
    05:00 +14°C° 0 mm 1 mps 723 mmHg 77%
    06:00 +14°C° 0 mm 2 mps 723 mmHg 75%
    07:00 +19°C° 0 mm 1 mps 723 mmHg 66%
    08:00 +22°C° 0 mm 1 mps 723 mmHg 56%
    09:00 +25°C° 0 mm 1 mps 724 mmHg 47%
    10:00 +26°C° 0 mm 1 mps 723 mmHg 43%
    11:00 +27°C° 0 mm 1 mps 723 mmHg 40%
    12:00 +28°C° 0 mm 2 mps 723 mmHg 36%
    13:00 +28°C° 0 mm 2 mps 723 mmHg 37%
    14:00 +28°C° 0 mm 2 mps 723 mmHg 37%
    15:00 +28°C° 0 mm 2 mps 723 mmHg 38%
    16:00 +27°C° 0.3 mm 2 mps 723 mmHg 46%
    17:00 +25°C° 0.3 mm 2 mps 722 mmHg 55%
    18:00 +24°C° 0.3 mm 1 mps 722 mmHg 63%
    19:00 +22°C° 0.1 mm 1 mps 722 mmHg 67%
    20:00 +20°C° 0.1 mm 1 mps 723 mmHg 71%
    21:00 +18°C° 0.1 mm 1 mps 723 mmHg 75%
    22:00 +18°C° 0.1 mm 1 mps 723 mmHg 76%
    23:00 +16°C° 0.1 mm 2 mps 723 mmHg 78%

    Tomorrow, 28 April, Saturday

    Time Temperature Precipitation Wind Pressure Humidity
    00:00 +16°C° 0.1 mm 2 mps 723 mmHg 79%
    01:00 +15°C° 0 mm 2 mps 723 mmHg 81%
    02:00 +15°C° 0 mm 2 mps 723 mmHg 82%
    03:00 +14°C° 0 mm 2 mps 723 mmHg 84%
    04:00 +14°C° 0 mm 1 mps 724 mmHg 84%
    05:00 +14°C° 0 mm 1 mps 724 mmHg 84%
    06:00 +14°C° 0 mm 1 mps 724 mmHg 84%
    07:00 +16°C° 0 mm 1 mps 725 mmHg 76%
    08:00 +19°C° 0 mm 1 mps 725 mmHg 68%
    09:00 +22°C° 0 mm 1 mps 726 mmHg 60%
    10:00 +21°C° 0 mm 2 mps 726 mmHg 58%
    11:00 +23°C° 0 mm 2 mps 726 mmHg 57%
    12:00 +24°C° 0 mm 2 mps 726 mmHg 56%
    13:00 +22°C° 0 mm 3 mps 726 mmHg 57%
    14:00 +22°C° 0 mm 3 mps 726 mmHg 59%
    15:00 +22°C° 0 mm 3 mps 726 mmHg 61%
    16:00 +21°C° 0.1 mm 3 mps 726 mmHg 66%
    17:00 +20°C° 0.1 mm 3 mps 726 mmHg 71%
    18:00 +19°C° 0.1 mm 3 mps 726 mmHg 77%
    19:00 +18°C° 0 mm 2 mps 727 mmHg 80%
    20:00 +17°C° 0 mm 2 mps 727 mmHg 84%
    21:00 +16°C° 0 mm 2 mps 727 mmHg 87%
    22:00 +15°C° 0 mm 2 mps 727 mmHg 86%
    23:00 +15°C° 0 mm 2 mps 727 mmHg 85%

    Day after tomorrow, 29 April, Sunday

    Time Temperature Precipitation Wind Pressure Humidity
    00:00 +15°C° 0 mm 2 mps 728 mmHg 84%
    01:00 +15°C° 0 mm 2 mps 728 mmHg 84%
    02:00 +14°C° 0 mm 2 mps 728 mmHg 84%
    03:00 +14°C° 0 mm 2 mps 728 mmHg 83%
    04:00 +14°C° 0 mm 2 mps 728 mmHg 83%
    05:00 +14°C° 0 mm 2 mps 728 mmHg 83%
    06:00 +13°C° 0 mm 2 mps 728 mmHg 82%
    07:00 +14°C° 0 mm 3 mps 728 mmHg 77%
    08:00 +17°C° 0 mm 3 mps 728 mmHg 71%
    09:00 +19°C° 0 mm 3 mps 729 mmHg 65%
    10:00 +20°C° 0 mm 4 mps 728 mmHg 62%
    11:00 +21°C° 0 mm 4 mps 728 mmHg 58%
    12:00 +22°C° 0 mm 4 mps 728 mmHg 55%
    13:00 +22°C° 0 mm 4 mps 728 mmHg 56%
    14:00 +22°C° 0 mm 4 mps 728 mmHg 57%
    15:00 +22°C° 0 mm 4 mps 727 mmHg 58%
    16:00 +21°C° 0 mm 4 mps 727 mmHg 61%
    17:00 +21°C° 0 mm 4 mps 727 mmHg 65%
    18:00 +20°C° 0 mm 4 mps 727 mmHg 68%
    19:00 +18°C° 0 mm 4 mps 727 mmHg 72%
    20:00 +17°C° 0 mm 4 mps 727 mmHg 76%
    21:00 +14°C° 0 mm 3 mps 727 mmHg 80%
    22:00 +14°C° 0 mm 3 mps 727 mmHg 80%
    23:00 +13°C° 0 mm 3 mps 727 mmHg 81%

    30 April, Monday

    Time Temperature Precipitation Wind Pressure Humidity
    00:00 +13°C° 0 mm 3 mps 726 mmHg 81%
    01:00 +12°C° 0 mm 3 mps 726 mmHg 79%
    02:00 +12°C° 0 mm 3 mps 726 mmHg 77%
    03:00 +12°C° 0 mm 2 mps 726 mmHg 75%
    04:00 +12°C° 0 mm 2 mps 726 mmHg 74%
    05:00 +12°C° 0 mm 2 mps 726 mmHg 72%
    06:00 +12°C° 0 mm 2 mps 726 mmHg 71%
    07:00 +14°C° 0 mm 3 mps 726 mmHg 64%
    08:00 +18°C° 0 mm 3 mps 726 mmHg 56%
    09:00 +21°C° 0 mm 3 mps 726 mmHg 49%
    10:00 +22°C° 0 mm 3 mps 726 mmHg 46%
    11:00 +23°C° 0 mm 4 mps 726 mmHg 44%
    12:00 +25°C° 0 mm 4 mps 726 mmHg 42%
    13:00 +25°C° 0 mm 4 mps 725 mmHg 43%
    14:00 +25°C° 0 mm 4 mps 725 mmHg 44%
    15:00 +25°C° 0 mm 4 mps 725 mmHg 45%
    16:00 +23°C° 0.1 mm 4 mps 725 mmHg 50%
    17:00 +22°C° 0.1 mm 3 mps 724 mmHg 56%
    18:00 +21°C° 0.1 mm 3 mps 724 mmHg 61%
    19:00 +19°C° 0.1 mm 3 mps 724 mmHg 66%
    20:00 +17°C° 0.1 mm 3 mps 724 mmHg 71%
    21:00 +16°C° 0.1 mm 3 mps 724 mmHg 75%
    22:00 +15°C° 0 mm 2 mps 724 mmHg 77%
    23:00 +15°C° 0 mm 2 mps 724 mmHg 79%

    1 May, Tuesday

    Time Temperature Precipitation Wind Pressure Humidity
    00:00 +14°C° 0 mm 2 mps 724 mmHg 80%
    01:00 +14°C° 0 mm 2 mps 724 mmHg 80%
    02:00 +14°C° 0 mm 2 mps 724 mmHg 80%
    03:00 +14°C° 0 mm 1 mps 724 mmHg 81%
    04:00 +14°C° 0 mm 1 mps 724 mmHg 80%
    05:00 +14°C° 0 mm 1 mps 724 mmHg 79%
    06:00 +15°C° 0 mm 1 mps 724 mmHg 79%
    07:00 +18°C° 0 mm 1 mps 725 mmHg 70%
    08:00 +21°C° 0 mm 1 mps 725 mmHg 61%
    09:00 +24°C° 0 mm 1 mps 726 mmHg 53%
    10:00 +25°C° 0 mm 1 mps 726 mmHg 49%
    11:00 +26°C° 0 mm 2 mps 726 mmHg 45%
    12:00 +27°C° 0 mm 2 mps 726 mmHg 42%
    13:00 +26°C° 0.1 mm 2 mps 726 mmHg 44%
    14:00 +26°C° 0.1 mm 2 mps 726 mmHg 46%
    15:00 +26°C° 0.1 mm 2 mps 725 mmHg 48%
    16:00 +25°C° 0.1 mm 2 mps 725 mmHg 54%
    17:00 +24°C° 0.1 mm 1 mps 725 mmHg 59%
    18:00 +23°C° 0.1 mm 1 mps 725 mmHg 65%
    19:00 +21°C° 0.1 mm 1 mps 725 mmHg 70%
    20:00 +20°C° 0.1 mm 1 mps 725 mmHg 75%
    21:00 +18°C° 0.1 mm 1 mps 725 mmHg 81%
    22:00 +16°C° 0 mm 1 mps 725 mmHg 80%
    23:00 +16°C° 0 mm 1 mps 724 mmHg 79%

    2 May, Wednesday

    Time Temperature Precipitation Wind Pressure Humidity
    00:00 +16°C° 0 mm 2 mps 724 mmHg 78%
    01:00 +16°C° 0 mm 1 mps 724 mmHg 77%
    02:00 +16°C° 0 mm 1 mps 724 mmHg 75%
    03:00 +15°C° 0 mm 1 mps 724 mmHg 74%
    04:00 +16°C° 0 mm 1 mps 724 mmHg 72%
    05:00 +16°C° 0 mm 1 mps 724 mmHg 71%
    06:00 +16°C° 0 mm 1 mps 725 mmHg 70%
    07:00 +20°C° 0 mm 1 mps 725 mmHg 62%
    08:00 +23°C° 0 mm 1 mps 725 mmHg 55%
    09:00 +26°C° 0 mm 1 mps 726 mmHg 47%
    10:00 +27°C° 0 mm 1 mps 726 mmHg 44%
    11:00 +28°C° 0 mm 1 mps 725 mmHg 41%
    12:00 +29°C° 0 mm 2 mps 725 mmHg 38%
    13:00 +29°C° 0 mm 2 mps 725 mmHg 40%
    14:00 +29°C° 0 mm 2 mps 725 mmHg 42%
    15:00 +28°C° 0 mm 3 mps 725 mmHg 44%
    16:00 +27°C° 0.6 mm 2 mps 725 mmHg 52%
    17:00 +26°C° 0.6 mm 2 mps 725 mmHg 61%
    18:00 +25°C° 0.6 mm 2 mps 724 mmHg 69%
    19:00 +23°C° 0 mm 2 mps 724 mmHg 73%
    20:00 +20°C° 0 mm 2 mps 724 mmHg 77%
    21:00 +18°C° 0 mm 2 mps 724 mmHg 81%
    22:00 +18°C° 0 mm 2 mps 724 mmHg 81%
    23:00 +18°C° 0 mm 2 mps 723 mmHg 80%
    Show more